Overview Statistics Trail Chart Weather Telemetry Raw packets
 

This is the latest recevied weather packets stored in our database for station/object KI5RAB. If no packets are shown the sender has not sent any weather packets the latest 10 day(s).

<< 54 55 56 57 58 59 60 >>
Time Temp. Humidity Pressure Rain* Wind** Luminosity Snow
1788297599 37.22° C 42% 1016.5 hPa 0 mm - 472 W/m² -
1788297294 36.67° C 41% 1016.4 hPa 0 mm - 487 W/m² -
1788296990 36.67° C 42% 1016.6 hPa 0 mm - 494 W/m² -
1788296686 36.11° C 42% 1016.8 hPa 0 mm - 522 W/m² -
1788296382 36.67° C 40% 1016.7 hPa 0 mm - 514 W/m² -
1788296076 36.67° C 41% 1016.7 hPa 0 mm - 545 W/m² -
1788295771 37.22° C 42% 1017.1 hPa 0 mm - 546 W/m² -
1788295468 36.67° C 41% 1016.9 hPa 0 mm - 556 W/m² -
1788295162 36.11° C 43% 1017.1 hPa 0 mm - 567 W/m² -
1788294857 36.67° C 42% 1017.2 hPa 0 mm - 579 W/m² -
1788294552 36.11° C 41% 1017.3 hPa 0 mm - 588 W/m² -
1788294246 35.56° C 42% 1017.4 hPa 0 mm - 598 W/m² -
1788293943 36.11° C 41% 1017.5 hPa 0 mm - 602 W/m² -
1788293642 36.67° C 42% 1017.6 hPa 0 mm - 611 W/m² -
1788293336 36.67° C 41% 1017.6 hPa 0 mm - 627 W/m² -
1788293031 36.67° C 39% 1017.7 hPa 0 mm - 633 W/m² -
1788292730 36.11° C 39% 1017.7 hPa 0 mm - 644 W/m² -
1788292422 36.11° C 40% 1018 hPa 0 mm - 656 W/m² -
1788292118 36.11° C 40% 1017.9 hPa 0 mm - 664 W/m² -
1788291812 35° C 41% 1017.9 hPa 0 mm - 668 W/m² -
1788291509 36.11° C 43% 1017.9 hPa 0 mm - 670 W/m² -
1788291207 35.56° C 43% 1018.1 hPa 0 mm - 675 W/m² -
1788290902 35.56° C 43% 1017.9 hPa 0 mm - 681 W/m² -
1788290598 35.56° C 42% 1018.2 hPa 0 mm - 686 W/m² -
1788290294 35.56° C 43% 1018.3 hPa 0 mm - 687 W/m² -

* Rain latest hour (hover to see other rain measurements)
** Current wind speed in m/s (hover to see current wind gust speed)